TimeCDT,TemperatureF,Dew PointF,Humidity,Sea Level PressureIn,VisibilityMPH,Wind Direction,Wind SpeedMPH,Gust SpeedMPH,PrecipitationIn,Events,Conditions,WindDirDegrees,DateUTC
12:58 AM,57.2,54.9,92,29.83,10.0,SE,6.9,-,N/A,,Clear,130,2013-05-22 05:58:00
1:58 AM,55.2,54.0,96,29.84,10.0,ESE,5.8,-,N/A,,Clear,110,2013-05-22 06:58:00
2:58 AM,56.1,54.1,93,29.83,10.0,NE,2.3,-,N/A,,Clear,40,2013-05-22 07:58:00
3:58 AM,51.8,51.8,100,29.83,10.0,East,4.6,-,N/A,,Clear,80,2013-05-22 08:58:00
4:58 AM,53.8,53.8,100,29.86,10.0,Calm,Calm,-,N/A,,Clear,0,2013-05-22 09:58:00
5:58 AM,50.2,50.2,100,29.87,10.0,NE,3.5,-,N/A,,Clear,40,2013-05-22 10:58:00
6:58 AM,53.2,53.1,99,29.88,10.0,NW,3.5,-,N/A,,Clear,320,2013-05-22 11:58:00
7:58 AM,60.4,54.9,82,29.88,10.0,Calm,Calm,-,N/A,,Clear,0,2013-05-22 12:58:00
8:58 AM,65.8,54.1,66,29.90,10.0,NW,4.6,-,N/A,,Clear,320,2013-05-22 13:58:00
9:58 AM,71.6,51.1,48,29.93,10.0,West,8.1,-,N/A,,Clear,260,2013-05-22 14:58:00
10:58 AM,75.7,51.4,43,29.92,10.0,Variable,4.6,-,N/A,,Clear,0,2013-05-22 15:58:00
11:58 AM,79.2,50.0,36,29.91,10.0,Variable,4.6,-,N/A,,Partly Cloudy,0,2013-05-22 16:58:00
12:58 PM,81.7,49.1,32,29.90,10.0,SE,8.1,-,N/A,,Clear,140,2013-05-22 17:58:00
1:58 PM,84.6,46.8,27,29.87,10.0,South,11.5,17.3,N/A,,Clear,190,2013-05-22 18:58:00
2:58 PM,87.1,46.9,25,29.85,10.0,SSE,13.8,20.7,N/A,,Clear,160,2013-05-22 19:58:00
3:58 PM,88.0,47.5,25,29.82,10.0,SSE,13.8,23.0,N/A,,Clear,160,2013-05-22 20:58:00
4:58 PM,89.1,46.2,23,29.80,10.0,SE,13.8,21.9,N/A,,Clear,140,2013-05-22 21:58:00
5:30 PM,89.6,44.6,21,29.83,10.0,SSE,17.3,23.0,N/A,,Clear,150,2013-05-22 22:30:00
5:58 PM,89.4,45.5,22,29.79,10.0,SE,15.0,23.0,N/A,,Clear,130,2013-05-22 22:58:00
6:58 PM,87.8,45.7,23,29.78,10.0,SE,16.1,-,N/A,,Clear,140,2013-05-22 23:58:00
7:58 PM,84.6,44.6,25,29.78,10.0,SE,13.8,-,N/A,,Clear,130,2013-05-23 00:58:00
8:58 PM,78.4,46.8,33,29.78,10.0,ESE,11.5,-,N/A,,Clear,110,2013-05-23 01:58:00
9:58 PM,75.4,49.1,39,29.80,10.0,East,11.5,-,N/A,,Clear,100,2013-05-23 02:58:00
10:58 PM,73.2,53.8,50,29.82,10.0,ESE,13.8,-,N/A,,Clear,110,2013-05-23 03:58:00
11:58 PM,69.8,54.9,59,29.83,10.0,ESE,12.7,-,N/A,,Clear,110,2013-05-23 04:58:00